MDT,Max TemperatureF,Mean TemperatureF,Min TemperatureF,Max Dew PointF,MeanDew PointF,Min DewpointF,Max Humidity, Mean Humidity, Min Humidity, Max Sea Level PressureIn, Mean Sea Level PressureIn, Min Sea Level PressureIn, Max VisibilityMiles, Mean VisibilityMiles, Min VisibilityMiles, Max Wind SpeedMPH, Mean Wind SpeedMPH, Max Gust SpeedMPH,PrecipitationIn, CloudCover, Events, WindDirDegrees
2014-3-1,-3,-10,-18,-18,-23,-28,69,54,39,30.71,30.63,30.43,10,10,10,16,12,20,0.00,4,,67
2014-3-2,3,-3,-9,-3,-9,-19,79,69,59,30.58,30.26,30.00,10,3,1,23,13,26,0.17,8,Snow,91
2014-3-3,13,6,-2,4,-1,-6,87,74,61,30.16,30.06,29.91,10,9,1,22,5,25,0.01,6,Snow,86
2014-3-4,26,10,-6,12,3,-10,91,75,59,30.09,30.04,29.88,10,10,5,10,3,13,0.00,0,,226
2014-3-5,29,15,0,21,8,-5,95,82,68,30.04,29.92,29.80,10,10,10,15,7,16,0.00,2,,249
2014-3-6,20,15,10,16,8,1,84,75,66,30.20,29.88,29.63,10,8,2,21,9,27,0.08,8,Rain-Snow,326
2014-3-7,27,18,9,15,8,1,92,78,63,30.28,30.19,30.04,10,9,2,15,6,17,T,5,Snow,78
2014-3-8,47,27,7,30,22,3,92,73,53,30.24,30.01,29.76,10,10,8,33,15,40,0.00,1,,222
2014-3-9,56,48,40,42,36,29,79,63,46,29.83,29.72,29.65,10,10,10,29,18,34,0.00,1,,228
2014-3-10,50,42,33,35,31,26,96,71,46,30.06,29.86,29.77,10,10,10,15,6,17,0.00,4,,56
2014-3-11,49,38,27,33,28,25,85,66,46,30.36,30.27,30.09,10,10,10,22,12,28,0.00,0,,234
2014-3-12,57,45,32,34,29,25,78,59,40,30.26,30.11,29.89,10,10,10,29,20,37,0.00,0,,227
2014-3-13,46,37,28,30,25,20,85,56,24,29.96,29.90,29.80,10,10,10,23,15,31,0.00,3,,262
2014-3-14,54,40,25,35,28,22,88,63,38,29.97,29.83,29.74,10,10,10,21,9,26,0.00,3,,231
2014-3-15,54,43,32,34,29,25,85,60,35,30.28,30.15,29.85,10,10,10,26,11,32,0.00,4,,255
2014-3-16,60,51,41,36,30,24,62,48,33,30.03,29.84,29.62,10,10,10,29,14,37,0.00,3,,240
2014-3-17,47,38,28,40,33,26,92,69,45,29.95,29.58,29.42,10,9,4,23,9,31,0.39,6,Rain-Thunderstorm,336
2014-3-18,43,34,24,32,29,24,92,77,62,30.11,30.05,29.98,10,10,9,22,9,27,T,6,Rain-Snow,243
2014-3-19,47,37,26,25,23,21,81,59,37,30.05,29.93,29.79,10,10,10,25,15,29,0.00,1,,222
2014-3-20,41,33,25,34,30,23,96,78,59,30.18,29.85,29.73,10,6,0,31,16,38,0.11,7,Fog-Rain-Snow,287
2014-3-21,25,19,13,25,14,7,88,78,67,30.61,30.40,30.11,10,3,0,22,9,30,0.11,8,Fog-Snow,51
2014-3-22,20,15,10,10,6,3,80,68,56,30.66,30.56,30.37,10,10,10,13,5,15,T,6,,80
2014-3-23,26,22,17,18,15,12,92,80,68,30.48,30.29,30.13,10,6,1,14,8,16,0.09,8,Snow,24
2014-3-24,28,18,8,15,11,6,91,71,50,30.61,30.56,30.48,10,10,9,17,8,21,T,3,,265
2014-3-25,38,26,14,25,18,9,92,73,54,30.46,29.98,29.64,10,10,10,15,8,18,0.00,2,,82
2014-3-26,41,32,22,28,25,20,96,80,63,29.74,29.64,29.57,10,10,9,17,8,22,0.00,5,,266
2014-3-27,31,27,23,25,23,19,92,84,75,30.03,29.82,29.72,10,4,0,18,14,22,0.11,8,Fog-Snow,69
2014-3-28,36,28,19,27,20,15,92,78,64,30.12,30.00,29.83,10,6,0,16,10,20,0.07,7,Fog-Snow,79
2014-3-29,55,41,27,38,32,26,92,71,50,29.80,29.71,29.63,10,10,7,24,11,32,T,2,,253
2014-3-30,37,30,22,30,26,19,92,84,75,30.19,29.92,29.76,10,8,4,22,11,25,0.00,6,,50
2014-3-31,40,31,21,26,21,16,84,69,54,30.22,30.13,30.02,10,10,10,20,14,24,T,6,Snow,77